Regional Weather Roundup
Issued by NWS Austin/San Antonio, TX

Home | Current Version | Previous Version | Text Only | Print | Product List | Glossary On
Versions: 1 2 3 4 5 6 7 8 9 10 11 12 13 14 15 16 17 18 19 20 21 22 23 24 25 26 27 28 29 30 31 32 33 34 35 36 37 38 39 40 41 42 43 44 45 46 47 48 49 50
000
ASUS44 KEWX 192210
RWREWX
SOUTH TEXAS REGIONAL WEATHER ROUNDUP
NATIONAL WEATHER SERVICE AUSTIN/SAN ANTONIO TX
400 PM CST MON FEB 19 2018

NOTE: "FAIR" INDICATED FEW OR NO CLOUDS BELOW 12,000 FEET WITH NO
SIGNIFICANT WEATHER AND/OR OBSTRUCTIONS TO VISIBILITY.

* - THESE STATIONS ARE NOT NWS OR FAA STATIONS...AND ARE NOT SUBJECT
    TO NWS AND FAA QUALITY CONTROL.

TXZ171-172-183>190-192300-
TEXAS HILL COUNTRY AND EDWARDS PLATEAU

CITY           SKY/WX    TMP DP  RH WIND       PRES   REMARKS
JUNCTION       MOSUNNY   77  61  57 S14       29.78F
*LLANO         CLOUDY    79  61  53 S15       29.82F
BURNET         CLOUDY    75  62  64 S14G22    29.83F
*HORSESHOE BAY CLOUDY    77  63  61 S9G18     29.81S
*KERRVILLE     MOSUNNY   76  62  61 S17G24    29.82F
*FREDERICKSBRG CLOUDY    75  60  58 S15G25    29.82F
*ROCKSPRINGS   MOSUNNY   75  61  60 SE15G21   29.86S
*BOERNE STAGE  PTSUNNY   73  63  68 S7        29.83F
*CASTROVILLE   PTSUNNY   83  60  44 S17G23    29.80F
HONDO          MOSUNNY   85  63  47 S18       29.78F
*UVALDE        MOSUNNY   81  62  52 SE14      29.78S
DEL RIO        MOSUNNY   84  60  44 SE13      29.71F
LAUGHLIN AFB   PTSUNNY   84  60  44 SE15      29.73F
CARRIZO SPRGS  CLOUDY    81  61  50 SE13      29.74F
*EAGLE PASS    CLEAR     84  59  42 SE14G23   29.73S
*FAITH RANCH   SUNNY     82  63  51 S8G16     29.76S
$$

TXZ173-191>194-202-209-217>225-228-192300-
CENTRAL AND SOUTH CENTRAL TEXAS

CITY           SKY/WX    TMP DP  RH WIND       PRES   REMARKS
GEORGETOWN     NOT AVBL
AUSTIN/BERGSTM CLOUDY    79  67  66 SE21G33   29.81S
AUSTIN/MABRY   PTSUNNY   78  64  61 S10G28    29.82F
*AUSTIN/EXEC   NOT AVBL
*LAGO VISTA    LGT RAIN  74  64  72 S9        29.83F
SAN MARCOS     CLOUDY    78  66  66 S25G31    29.82S
NEW BRAUNFELS  CLOUDY    79  65  62 S28G33    29.80F
RANDOLPH AFB   CLOUDY    78  67  68 SE20G28   29.81S
PT SAN ANTONIO NOT AVBL
SAN ANTONIO    CLOUDY    80  64  58 SE20      29.80F
STINSON FIELD  CLOUDY    81  67  62 SE20      29.77F
*LA GRANGE     CLOUDY    76  67  74 S15G23    29.86F
*GIDDINGS      MOSUNNY   75  63  67 S13G30    29.87F
*GONZALES      CLOUDY    77  67  71 SE15G23   29.84S
$$

TXZ163>164-176>182-195>201-210>213-226-227-235-192300-
SOUTHEAST TEXAS

CITY           SKY/WX    TMP DP  RH WIND       PRES   REMARKS
COLLEGE STN    CLOUDY    77  61  57 S21G31    29.88S
*BRYAN         CLOUDY    77  60  55 S24G35    29.89S
*CALDWELL      CLOUDY    76  63  62 S29G40    29.88S
*CROCKETT      PTSUNNY   77  63  61 SE13G20   29.93S
*BRENHAM       CLOUDY    77  64  63 S18G26    29.91R
HUNTSVILLE     CLOUDY    78  63  59 SE7G18    29.90F
CONROE         PTSUNNY   77  66  68 SE17      29.93F
HOUSTON BUSH   PTSUNNY   77  65  66 S14G26    29.94F
HOUSTON HOBBY  CLOUDY    75  68  78 SE16G22   29.95F
*HOUSTON SW AP CLOUDY    73  67  79 SE12G18   29.95F
PEARLAND       CLOUDY    74  68  81 SE13G22   29.96F
HOUSTON HOOKS  CLOUDY    78  63  59 S14G24    29.93S
ELLINGTON FLD  CLOUDY    75  66  73 SE14G24   29.96F
SUGAR LAND     CLOUDY    77  66  68 S20       29.93F
*HOUSTON EXEC  CLOUDY    75  66  73 S20       29.94R
*CLEVELAND MUN CLOUDY    77  59  53 S16G25    29.97S
*WHARTON       PTSUNNY   74  65  73 SE18G24   29.93S
*COLUMBUS      CLOUDY    73  66  77 SW10G22   29.92S
*EAGLE LAKE    CLOUDY    74  68  80 S16G23    29.92S
$$

TXZ214>216-236>238-192300-
THE UPPER TEXAS COAST

CITY           SKY/WX    TMP DP  RH WIND       PRES   REMARKS
*ORANGE        CLOUDY    76  70  80 S14G22    30.03S
PORT ARTHUR    CLOUDY    76  67  73 SE16G26   30.00S
GALVESTON      CLOUDY    72  66  81 SE17      29.97F
ANGLETON       CLOUDY    74  67  78 SE14G22   29.94F
*BAY CITY      CLOUDY    76  69  78 SE17G25   29.93S
PALACIOS       FAIR      77  70  79 SE23G30   29.90F
$$

TXZ229>234-239>247-192300-
TEXAS COASTAL BEND AND RIO GRANDE PLAINS

CITY           SKY/WX    TMP DP  RH WIND       PRES   REMARKS
VICTORIA       CLOUDY    78  66  66 S22G32    29.88F
*BEEVILLE      CLOUDY    80  68  66 SE21G31   29.82S
ROCKPORT       FAIR      76  68  76 SE15G22   29.87F HAZE
*PORT ARANSAS  NOT AVBL
*PORT LAVACA   CLOUDY    76  68  74 S20G25    29.90F
*INGLESIDE     FAIR      77  70  77 MISG      29.85F
CORPUS CHRISTI PTSUNNY   79  70  74 SE30G39   29.84F
CORPUS NAS     CLOUDY    77  70  79 SE24G33   29.85S
*ROBSTOWN      FAIR      80  69  67 SE26G35   29.83S
ALICE          PTSUNNY   84  66  54 S17G28    29.79F
KINGSVILLE NAS MOSUNNY   81  70  69 SE25G33   29.80F
COTULLA        CLOUDY    87  61  41 S9        29.75S
LAREDO         CLOUDY    88  62  41 S13       29.75F
$$

TXZ248>255-192300-
DEEP SOUTH TEXAS

CITY           SKY/WX    TMP DP  RH WIND       PRES   REMARKS
BROWNSVILLE    PTSUNNY   83  70  64 S32G38    29.85S
PORT ISABEL    PTSUNNY   81  68  64 S26G40    29.83S
*SOUTH PADRE   NOT AVBL
HARLINGEN      FAIR      81  68  64 S31G40    29.81F
*HEBBRONVILLE  FAIR      86  63  46 S17G28    29.79R
MCALLEN        PTSUNNY   86  69  56 SE29G38   29.80R HX  90
*WESLACO       NOT AVBL
FALFURRIAS     PTSUNNY   85  65  49 S21G30    29.79S
EDINBURG       FAIR      86  65  49 SE21G30   29.80S
*ZAPATA        FAIR      91  57  31 SE13      29.74S
$$

TXZ213>215-236>238-242>244-246-247-251-254-255-192300-
CMAN STATIONS

STATION/POSITION TIME  TEMP    WIND        PRES    WAVE
                       AIR SEA DIR/SP/G            HT/PER
                 (UTC) (F)     (DEG/KT/KT) (MB)    (FT/S)
SABINE PASS      2148   67 68  140/ 11/ 13 1017.9
SEA RIM ST PARK  2200   68     130/ 11/ 13 1016.4
NORTH JETTY/GLS  2148          110/ 14/ 15   N/A
EAGLE POINT      2148   67 69  150/ 12/ 14 1015.0
MORGANS POINT    2148   71 63  140/ 10/ 14 1014.9
PORT O`CONNOR    2148   68 65  130/ 13/ 16 1012.1
MALAQUITE BEACH  2148   81 64  120/ 16/ 17 1010.4
BAFFIN BAY       2148   71 76  130/ 19/ 30 1010.4
PORT ISABEL      2148   74 64  150/ 17/ 21 1010.9
$$




USA.gov is the U.S. government's official web portal to all federal, state and local government web resources and services.